This is the latest recevied weather packets stored in our database for station/object KC5DAQ-25. If no packets are shown the sender has not sent any weather packets the latest 10 day(s).
| Time | Temp. | Humidity | Pressure | Rain* | Wind** | Luminosity | Snow |
|---|---|---|---|---|---|---|---|
| 1777635690 | 16.67° C | 89% | 1003.7 hPa | 7.62 mm | - | 0 W/m² | - |
| 1777635630 | 16.67° C | 89% | 1003.7 hPa | 7.11 mm | - | 0 W/m² | - |
| 1777635569 | 16.67° C | 89% | 1003.7 hPa | 6.86 mm | - | 0 W/m² | - |
| 1777635511 | 16.67° C | 89% | 1003.7 hPa | 6.6 mm | - | 0 W/m² | - |
| 1777635449 | 17.22° C | 89% | 1003.6 hPa | 6.35 mm | - | 0 W/m² | - |
| 1777635390 | 16.67° C | 89% | 1003.7 hPa | 6.1 mm | - | 0 W/m² | - |
| 1777635330 | 16.67° C | 89% | 1003.6 hPa | 6.1 mm | - | 0 W/m² | - |
| 1777635269 | 16.67° C | 89% | 1003.7 hPa | 5.84 mm | - | 0 W/m² | - |
| 1777635209 | 17.22° C | 89% | 1003.7 hPa | 5.84 mm | - | 0 W/m² | - |
| 1777635150 | 17.22° C | 89% | 1003.8 hPa | 5.84 mm | - | 0 W/m² | - |
| 1777635091 | 17.22° C | 89% | 1003.9 hPa | 5.84 mm | - | 0 W/m² | - |
| 1777635030 | 17.22° C | 89% | 1004 hPa | 5.84 mm | - | 0 W/m² | - |
| 1777634969 | 17.22° C | 89% | 1003.9 hPa | 5.84 mm | - | 0 W/m² | - |
| 1777634909 | 17.22° C | 89% | 1003.8 hPa | 5.84 mm | - | 0 W/m² | - |
| 1777634850 | 17.22° C | 89% | 1003.7 hPa | 5.84 mm | - | 0 W/m² | - |
| 1777634790 | 17.22° C | 89% | 1003.5 hPa | 5.84 mm | - | 0 W/m² | - |
| 1777634729 | 17.22° C | 89% | 1003.3 hPa | 5.59 mm | - | 0 W/m² | - |
| 1777634669 | 17.22° C | 89% | 1003.1 hPa | 5.59 mm | - | 0 W/m² | - |
| 1777634609 | 17.22° C | 89% | 1002.9 hPa | 5.33 mm | - | 0 W/m² | - |
| 1777634549 | 17.22° C | 89% | 1002.8 hPa | 5.08 mm | - | 0 W/m² | - |
| 1777634489 | 17.22° C | 89% | 1002.6 hPa | 5.33 mm | - | 0 W/m² | - |
| 1777634431 | 17.22° C | 89% | 1002.6 hPa | 5.33 mm | - | 0 W/m² | - |
| 1777634368 | 17.22° C | 89% | 1002.7 hPa | 5.33 mm | - | 0 W/m² | - |
| 1777634310 | 17.22° C | 89% | 1002.8 hPa | 5.08 mm | - | 0 W/m² | - |
| 1777634250 | 17.22° C | 89% | 1002.8 hPa | 5.08 mm | - | 0 W/m² | - |
* Rain latest hour (hover to see other rain measurements)
** Current wind speed in m/s (hover to see current wind gust speed)